TimeCST,TemperatureF,Dew PointF,Humidity,Sea Level PressureIn,VisibilityMPH,Wind Direction,Wind SpeedMPH,Gust SpeedMPH,PrecipitationIn,Events,Conditions,WindDirDegrees,DateUTC
12:35 AM,56.8,55.9,97,29.64,10.0,SSW,13.8,-,0.07,Rain,Light Rain,200,2012-11-11 06:35:00
12:55 AM,55.4,54.1,96,29.64,10.0,WNW,11.5,-,0.09,Rain,Light Rain,300,2012-11-11 06:55:00
1:15 AM,48.7,47.7,96,29.67,7.0,NNW,17.3,21.9,0.03,Rain,Rain,330,2012-11-11 07:15:00
1:35 AM,44.6,43.7,97,29.69,10.0,NNW,18.4,25.3,0.05,Rain,Light Rain,330,2012-11-11 07:35:00
1:55 AM,40.5,39.6,97,29.70,3.0,NW,23.0,28.8,0.05,Rain,Light Rain,320,2012-11-11 07:55:00
2:15 AM,39.4,38.8,98,29.71,4.0,North,17.3,26.5,N/A,Rain,Light Rain,350,2012-11-11 08:15:00
2:35 AM,37.9,37.4,98,29.72,5.0,NNW,20.7,24.2,N/A,,Overcast,330,2012-11-11 08:35:00
2:55 AM,36.5,36.1,99,29.73,3.0,NNW,20.7,27.6,N/A,Rain,Light Rain,330,2012-11-11 08:55:00
3:15 AM,35.8,35.6,99,29.74,2.5,NNW,18.4,25.3,N/A,Rain,Light Rain,330,2012-11-11 09:15:00
3:35 AM,34.3,34.0,99,29.77,3.0,NNW,19.6,27.6,N/A,Rain,Light Rain,330,2012-11-11 09:35:00
3:55 AM,34.0,33.4,98,29.78,4.0,NNW,20.7,25.3,N/A,Rain,Light Rain,340,2012-11-11 09:55:00
4:15 AM,33.8,32.9,96,29.77,10.0,North,16.1,23.0,N/A,,Overcast,350,2012-11-11 10:15:00
4:35 AM,33.3,32.9,99,29.76,4.0,NNW,21.9,25.3,N/A,,Overcast,340,2012-11-11 10:35:00
4:55 AM,32.4,31.8,98,29.78,10.0,North,18.4,29.9,N/A,,Overcast,350,2012-11-11 10:55:00
5:35 AM,32.0,31.8,99,29.82,5.0,NNW,19.6,27.6,N/A,,Overcast,330,2012-11-11 11:35:00
5:55 AM,31.8,31.1,97,29.80,7.0,North,24.2,28.8,N/A,,Overcast,350,2012-11-11 11:55:00
6:15 AM,31.6,31.1,98,29.83,5.0,NNW,17.3,25.3,N/A,,Overcast,340,2012-11-11 12:15:00
6:35 AM,31.1,30.2,96,29.84,7.0,North,18.4,26.5,N/A,,Overcast,350,2012-11-11 12:35:00
6:55 AM,30.6,29.3,95,29.85,7.0,North,19.6,27.6,N/A,,Overcast,350,2012-11-11 12:55:00
7:35 AM,30.0,28.6,94,29.84,10.0,North,20.7,27.6,N/A,,Overcast,350,2012-11-11 13:35:00
7:55 AM,29.5,28.2,95,29.89,7.0,NNW,19.6,25.3,N/A,,Overcast,340,2012-11-11 13:55:00
8:15 AM,29.3,27.5,93,29.91,5.0,NNW,19.6,25.3,N/A,,Overcast,340,2012-11-11 14:15:00
8:35 AM,29.3,27.3,92,29.88,7.0,NNW,18.4,-,N/A,,Overcast,340,2012-11-11 14:35:00
8:55 AM,29.1,27.5,94,29.89,5.0,NNW,21.9,25.3,N/A,,Overcast,340,2012-11-11 14:55:00
9:35 AM,28.4,25.5,89,29.93,10.0,NNW,16.1,25.3,N/A,,Overcast,330,2012-11-11 15:35:00
9:55 AM,28.4,25.3,88,29.91,10.0,NNW,23.0,27.6,N/A,,Overcast,330,2012-11-11 15:55:00
10:15 AM,28.4,24.8,86,29.91,10.0,NNW,26.5,31.1,N/A,,Overcast,330,2012-11-11 16:15:00
10:35 AM,28.4,23.5,82,29.92,10.0,NNW,20.7,28.8,N/A,,Overcast,330,2012-11-11 16:35:00
10:55 AM,28.2,23.4,82,29.94,10.0,NNW,21.9,26.5,N/A,,Overcast,330,2012-11-11 16:55:00
11:15 AM,28.0,23.7,84,29.96,10.0,NW,17.3,-,N/A,,Overcast,320,2012-11-11 17:15:00
11:35 AM,28.0,22.6,80,29.96,10.0,NNW,16.1,24.2,N/A,,Overcast,330,2012-11-11 17:35:00
11:55 AM,28.8,22.1,76,29.98,10.0,NNW,17.3,23.0,N/A,,Overcast,340,2012-11-11 17:55:00
12:15 PM,30.0,23.0,75,29.96,10.0,NW,17.3,-,N/A,,Overcast,320,2012-11-11 18:15:00
12:35 PM,31.1,22.8,71,29.97,10.0,NW,16.1,-,N/A,,Mostly Cloudy,320,2012-11-11 18:35:00
12:55 PM,32.2,23.9,72,29.96,10.0,NW,17.3,24.2,N/A,,Scattered Clouds,320,2012-11-11 18:55:00
1:15 PM,32.0,22.8,69,29.96,10.0,NW,18.4,24.2,N/A,,Scattered Clouds,320,2012-11-11 19:15:00
1:35 PM,31.8,21.6,66,29.96,10.0,NNW,21.9,-,N/A,,Scattered Clouds,340,2012-11-11 19:35:00
1:55 PM,32.2,20.3,62,29.97,10.0,NNW,24.2,28.8,N/A,,Clear,330,2012-11-11 19:55:00
2:15 PM,32.7,20.1,60,29.99,10.0,NW,18.4,25.3,N/A,,Clear,320,2012-11-11 20:15:00
2:35 PM,32.5,19.0,58,29.98,10.0,NNW,19.6,26.5,N/A,,Clear,340,2012-11-11 20:35:00
2:55 PM,32.9,18.9,56,29.99,10.0,NNW,17.3,24.2,N/A,,Clear,330,2012-11-11 20:55:00
3:15 PM,32.4,18.9,58,30.00,10.0,NW,18.4,25.3,N/A,,Clear,320,2012-11-11 21:15:00
3:35 PM,32.7,18.1,55,30.02,10.0,NNW,19.6,24.2,N/A,,Clear,330,2012-11-11 21:35:00
3:55 PM,32.2,18.0,56,30.02,10.0,NNW,15.0,24.2,N/A,,Clear,340,2012-11-11 21:55:00
4:15 PM,32.0,18.1,57,30.03,10.0,NNW,16.1,23.0,N/A,,Clear,330,2012-11-11 22:15:00
4:35 PM,31.6,16.9,54,30.04,10.0,NW,15.0,23.0,N/A,,Clear,320,2012-11-11 22:35:00
4:55 PM,30.9,16.9,56,30.05,10.0,NW,13.8,21.9,N/A,,Clear,320,2012-11-11 22:55:00
5:15 PM,30.0,16.7,58,30.06,10.0,NW,12.7,-,N/A,,Clear,320,2012-11-11 23:15:00
5:35 PM,29.3,17.4,61,30.07,10.0,NW,10.4,-,N/A,,Clear,320,2012-11-11 23:35:00
5:55 PM,29.3,17.1,60,30.08,10.0,NW,10.4,-,N/A,,Clear,320,2012-11-11 23:55:00
6:15 PM,28.4,18.0,65,30.10,10.0,NW,8.1,-,N/A,,Clear,310,2012-11-12 00:15:00
6:35 PM,28.8,17.2,62,30.11,10.0,NW,15.0,20.7,N/A,,Clear,310,2012-11-12 00:35:00
6:55 PM,28.4,16.7,62,30.11,10.0,NW,12.7,17.3,N/A,,Clear,320,2012-11-12 00:55:00
7:15 PM,27.5,17.1,65,30.12,10.0,NW,10.4,-,N/A,,Clear,310,2012-11-12 01:15:00
7:35 PM,27.1,17.4,67,30.13,10.0,WNW,8.1,-,N/A,,Clear,300,2012-11-12 01:35:00
7:55 PM,26.2,17.2,69,30.13,10.0,West,6.9,-,N/A,,Clear,280,2012-11-12 01:55:00
8:15 PM,25.5,17.6,72,30.13,10.0,Calm,Calm,-,N/A,,Clear,0,2012-11-12 02:15:00
8:35 PM,24.8,18.1,76,30.14,10.0,West,6.9,-,N/A,,Clear,270,2012-11-12 02:35:00
8:55 PM,24.8,18.3,76,30.15,10.0,West,10.4,-,N/A,,Clear,270,2012-11-12 02:55:00
9:15 PM,25.5,17.6,72,30.15,10.0,Calm,Calm,-,N/A,,Clear,0,2012-11-12 03:15:00
9:35 PM,25.2,17.6,73,30.16,10.0,West,9.2,-,N/A,,Clear,280,2012-11-12 03:35:00
9:55 PM,26.8,17.2,67,30.17,10.0,West,11.5,-,N/A,,Clear,280,2012-11-12 03:55:00
10:15 PM,26.6,16.9,67,30.18,10.0,WNW,11.5,-,N/A,,Clear,300,2012-11-12 04:15:00
10:35 PM,26.6,16.7,66,30.18,10.0,WNW,10.4,-,N/A,,Scattered Clouds,300,2012-11-12 04:35:00
10:55 PM,25.7,16.9,69,30.18,10.0,WNW,8.1,-,N/A,,Clear,290,2012-11-12 04:55:00
11:15 PM,24.6,17.1,73,30.18,10.0,Calm,Calm,-,N/A,,Clear,0,2012-11-12 05:15:00
11:35 PM,23.7,16.7,75,30.19,10.0,Calm,Calm,-,N/A,,Clear,0,2012-11-12 05:35:00
11:55 PM,23.5,16.9,76,30.19,10.0,Calm,Calm,-,N/A,,Scattered Clouds,0,2012-11-12 05:55:00